Dewpoint
58 58 58 58 58 58 58 58 58 58 58 58 58 58 58 58 59 59 59 59 59 59 59 58 58 58 58 59 59 59 59 59 59 58 58 58 58 58 58 58 57 57 58 58 58 59 60 58 51 45 43 41 40 40 43 48 50 50 48 50 51 51 53 59 60 60 60 60 60 60 60 60 59 59 59 59 59 59 59 59 59 59 59 59 59 59 59 60 60 60 60 60 60 60 60 59 59 59 58 58 58 58 58
58 58 58 58 58 58 58 58 58 58 58 58 58 58 58 58 59 59 59 59 59 58 58 58 58 58 58 58 58 58 58 59 58 58 58 58 58 58 58 58 57 57 58 58 58 59 60 58 52 47 46 44 42 42 44 47 48 48 48 50 51 52 56 59 60 60 60 60 60 60 60 60 59 59 59 59 59 59 59 59 59 59 59 59 59 59 59 59 59 60 60 60 60 60 60 60 60 59 59 59 58 58 58
58 59 58 58 58 58 58 58 58 58 58 58 58 58 58 58 58 59 59 59 58 58 58 58 58 57 58 58 58 58 58 58 58 58 58 58 58 58 58 57 57 57 57 58 58 59 59 59 54 48 46 45 44 44 46 47 47 47 49 51 51 53 56 59 60 60 60 60 60 60 60 60 60 59 59 60 60 59 59 59 59 59 59 59 59 59 60 59 59 59 59 59 60 60 60 60 60 60 60 59 59 58 58
59 59 59 58 58 58 58 58 58 58 58 58 58 58 58 58 59 59 59 59 58 58 58 57 57 57 57 57 57 57 58 58 58 58 58 58 58 57 57 57 57 57 57 57 58 58 58 59 56 51 47 46 45 45 47 50 50 49 49 51 52 55 59 59 59 59 60 60 60 60 60 60 60 60 60 60 60 60 59 59 59 59 59 59 60 60 60 60 59 59 59 59 59 59 59 60 60 60 60 60 60 59 59
59 59 59 59 58 58 58 58 58 58 58 58 58 58 58 58 59 59 59 59 58 58 57 57 57 57 57 57 57 57 57 58 58 58 58 58 58 57 57 57 57 57 57 57 58 57 56 57 55 51 47 46 46 46 47 51 52 51 50 51 53 56 60 59 59 59 60 60 60 60 60 60 60 60 60 60 59 59 59 59 59 59 59 59 59 59 60 60 59 59 59 59 59 59 59 59 59 59 59 59 59 59 59
59 59 59 59 58 58 58 58 58 58 58 58 58 58 59 59 59 59 59 59 58 58 57 57 57 56 56 56 56 57 57 57 57 57 57 57 57 57 57 57 57 57 57 57 57 57 56 54 51 49 47 47 47 47 48 51 51 49 49 51 54 58 59 58 58 59 59 60 60 60 60 60 60 60 59 59 59 59 59 59 59 59 59 59 59 59 59 59 59 59 59 59 59 59 59 59 59 59 59 59 59 59 59
59 59 58 58 58 58 58 58 58 58 58 58 59 59 59 59 59 59 59 58 58 58 57 57 56 56 56 56 56 56 56 57 57 57 57 57 57 57 57 57 57 57 57 57 57 57 56 52 51 50 48 47 46 46 46 50 51 51 50 51 56 60 59 58 57 58 58 59 59 60 60 59 59 59 59 59 59 59 59 59 59 59 59 59 59 59 59 59 59 59 59 59 59 59 59 59 59 59 59 59 59 59 59
59 59 58 58 58 58 58 58 58 58 58 58 59 59 59 59 58 58 58 58 58 57 57 57 56 56 56 56 56 56 56 56 56 57 57 57 57 57 57 57 57 57 57 57 57 57 57 55 52 51 49 47 47 47 47 47 49 50 50 53 56 59 59 57 56 57 58 58 59 59 59 59 59 59 59 59 59 59 58 58 59 59 59 59 59 59 59 59 59 59 59 59 59 59 59 59 59 59 59 58 59 59 59
59 59 59 58 58 58 58 58 58 58 58 58 58 58 58 58 58 58 57 57 57 57 57 56 56 56 56 56 56 56 56 56 56 56 57 57 57 57 57 57 57 57 57 57 58 58 58 56 53 51 49 47 48 49 51 48 47 48 48 53 57 59 58 56 56 56 57 58 58 58 58 58 58 58 58 58 58 58 58 58 58 58 59 59 58 58 59 58 58 58 58 58 58 58 58 58 59 59 58 58 59 59 59
59 59 59 59 58 58 58 58 58 58 58 58 58 58 58 58 57 57 57 57 57 57 57 56 56 56 56 56 56 56 56 57 57 57 57 57 57 57 57 57 57 57 57 58 58 58 59 56 53 50 49 47 48 50 52 48 48 49 49 55 57 57 56 56 56 56 56 57 58 58 58 58 58 58 58 58 58 58 58 58 58 58 58 58 58 58 58 58 58 58 58 58 58 58 58 58 58 58 58 58 59 59 59
59 59 59 59 59 58 58 58 58 58 58 58 58 58 57 57 57 57 57 57 57 56 56 56 56 56 56 56 56 57 57 57 57 57 57 57 57 57 57 57 57 57 58 58 58 59 59 55 51 49 48 47 49 50 48 47 49 50 50 56 57 57 56 56 55 55 56 57 57 58 58 58 57 57 57 57 57 57 57 58 58 58 58 58 58 58 58 58 58 58 58 58 58 58 58 58 58 58 58 58 59 59 59
59 59 59 59 59 59 58 58 58 58 57 57 57 57 57 57 57 57 57 57 56 56 56 56 56 56 56 57 57 57 57 58 58 58 58 58 58 57 57 57 57 57 58 58 59 59 58 53 50 48 47 47 47 48 47 47 47 47 48 56 57 57 56 55 54 54 55 56 57 57 57 57 57 57 57 57 57 57 57 57 57 57 57 57 58 58 58 58 58 58 58 58 58 58 58 58 58 58 58 59 59 59 59
59 59 59 59 59 58 58 58 58 57 57 57 57 57 57 57 57 57 56 56 56 56 56 56 56 56 57 57 57 57 58 58 58 59 59 59 58 58 57 57 57 57 58 58 58 57 55 51 48 47 46 47 46 46 48 48 47 47 51 56 57 56 55 55 54 54 55 56 56 57 57 57 57 57 57 57 57 57 57 57 57 57 57 57 57 58 58 58 58 58 58 58 58 58 58 58 58 59 59 59 59 59 59
60 60 59 59 59 59 58 58 58 57 57 57 57 57 57 57 57 57 57 57 57 57 57 57 57 57 57 58 58 58 58 59 59 59 59 59 59 59 58 57 57 58 58 59 56 53 51 48 47 47 46 46 46 47 51 50 48 49 55 56 56 56 55 54 54 54 54 56 56 56 57 56 56 56 56 56 56 56 56 56 56 56 56 57 57 57 57 57 57 58 58 58 58 58 58 58 59 59 59 59 59 59 59
60 60 60 60 59 59 58 58 58 58 58 57 57 57 57 57 58 58 58 58 58 58 58 58 58 58 58 58 59 59 60 60 60 60 60 60 60 59 58 58 58 58 59 57 53 50 49 47 47 47 47 46 47 47 50 50 49 50 57 56 56 55 54 54 54 54 54 55 56 56 56 56 56 56 56 56 56 56 56 56 56 56 56 56 56 57 57 57 57 58 58 58 58 58 58 58 58 59 59 59 59 59 60
60 60 60 60 60 59 59 59 58 58 58 58 58 58 58 58 58 59 59 59 59 59 59 59 59 59 59 59 59 60 60 60 60 60 60 60 60 59 59 58 59 59 59 54 51 49 47 47 46 47 49 47 47 48 49 48 50 53 59 56 55 54 53 53 53 53 54 55 55 56 56 56 56 56 56 56 56 56 56 56 56 56 56 56 56 56 56 57 57 57 57 57 57 57 57 58 58 58 58 59 59 59 59
60 60 60 60 60 59 59 59 59 59 59 59 59 59 59 59 59 59 60 60 60 60 60 60 60 60 60 60 60 60 59 58 57 58 59 60 60 59 59 59 59 58 56 51 49 47 47 46 46 47 47 47 47 48 50 48 51 56 58 56 54 53 53 52 53 53 54 55 55 55 55 55 55 55 55 55 55 56 56 56 56 56 56 56 56 56 56 56 57 57 57 57 57 57 57 57 57 57 58 58 58 58 59
61 61 61 61 60 60 60 60 59 59 59 59 60 60 60 60 60 60 60 60 60 60 60 60 60 60 60 60 60 59 55 53 52 53 55 58 59 59 59 58 56 54 51 50 48 47 46 45 46 47 48 47 47 48 51 49 52 56 56 55 53 52 52 52 52 53 54 55 55 55 55 55 55 55 55 55 55 55 55 55 56 56 56 56 56 56 56 56 56 56 56 56 56 56 57 57 57 57 57 57 57 58 58
61 61 61 61 60 60 60 60 60 60 60 60 60 60 60 60 60 60 60 61 61 61 61 61 61 61 61 61 59 55 51 50 50 50 50 52 55 56 56 55 53 50 48 47 46 45 45 45 46 47 48 47 47 48 51 50 53 56 55 53 52 52 51 51 52 53 54 55 55 55 55 55 55 55 55 55 55 55 55 55 56 56 56 56 56 56 56 56 56 56 56 56 56 56 56 56 56 56 57 57 57 57 57
60 61 61 61 60 60 61 60 60 60 60 60 60 61 61 61 61 61 61 61 62 62 62 61 61 61 61 58 54 51 49 48 48 48 48 47 48 49 50 50 48 47 47 46 45 45 45 45 47 47 47 47 47 48 49 50 53 56 53 52 52 51 50 51 52 54 54 55 55 55 55 55 55 54 55 55 55 55 55 55 56 56 56 56 56 56 56 56 55 55 55 55 56 56 56 56 56 56 56 56 56 56 57
58 59 60 60 60 60 60 60 60 60 60 61 61 60 59 60 60 61 61 61 61 62 62 61 59 56 56 52 49 48 47 47 47 47 47 46 45 46 46 46 46 46 46 45 44 45 45 45 46 46 45 46 46 46 47 51 54 55 53 52 51 51 50 50 51 53 54 55 55 55 55 54 54 54 54 54 55 55 55 55 56 56 56 56 56 55 55 55 55 55 55 55 55 55 56 56 56 55 55 56 56 56 56
57 57 59 59 60 60 59 58 58 59 59 60 60 57 56 57 57 57 59 59 58 58 57 55 51 49 49 48 47 47 47 46 46 45 45 45 45 45 45 44 44 44 44 43 44 45 45 45 45 45 45 45 45 44 44 51 54 54 52 51 51 50 49 49 51 53 54 54 54 54 54 54 54 54 54 54 54 54 55 55 55 55 55 55 55 55 55 55 55 55 55 55 55 55 55 55 55 55 55 55 55 56 56
57 57 58 58 58 58 58 57 57 57 57 59 58 56 54 53 53 53 55 54 53 52 51 49 48 47 48 47 46 46 46 47 46 45 44 44 44 44 44 43 43 42 42 42 43 44 44 45 45 44 44 43 42 42 42 50 53 53 52 51 50 49 48 49 51 52 53 54 54 54 54 53 53 53 53 53 54 54 54 54 54 54 54 54 54 54 54 54 54 54 55 55 55 55 54 54 54 55 55 55 55 55 55
56 57 56 57 57 57 57 56 56 56 55 56 56 55 53 51 50 50 51 51 50 49 48 47 47 47 47 47 46 46 46 46 47 46 44 44 44 43 43 42 42 41 41 41 41 42 42 43 43 42 41 40 40 40 40 49 53 53 51 51 49 48 48 49 51 52 52 53 53 53 53 53 53 53 52 53 53 53 53 53 53 54 54 54 54 54 54 54 54 54 54 54 54 54 54 54 54 54 54 54 54 54 55
56 56 56 56 56 56 56 55 54 54 54 53 53 53 52 50 49 48 49 50 49 48 47 47 47 47 47 47 46 46 46 46 46 45 44 44 43 42 42 41 41 40 39 39 39 40 40 40 40 39 38 38 38 38 39 49 52 52 51 50 49 48 48 49 50 51 52 52 52 52 52 52 52 52 52 52 52 52 52 52 52 53 53 53 53 53 53 53 53 53 53 53 53 53 53 53 53 53 54 54 54 54 54
55 56 55 56 56 56 54 53 53 52 52 51 51 51 51 49 48 48 48 49 48 47 47 46 46 46 46 46 46 46 46 46 45 45 44 43 42 42 41 40 39 38 37 37 38 38 38 38 38 38 37 37 37 37 38 48 52 52 51 50 49 48 48 48 50 51 51 51 51 51 51 51 51 51 51 51 51 51 51 51 51 52 52 52 52 52 52 52 52 52 52 52 52 52 52 52 52 52 53 53 53 53 53
55 55 55 55 55 55 53 53 52 52 52 51 51 50 50 49 49 48 48 48 47 47 46 46 46 46 46 46 46 46 45 45 44 43 43 43 42 41 40 39 38 37 36 36 37 37 37 37 37 36 36 36 36 36 35 44 49 51 51 50 49 48 48 48 49 50 51 51 51 51 51 51 51 51 51 51 51 51 51 51 51 51 51 51 51 52 52 51 51 51 51 51 51 51 51 51 51 51 52 52 52 52 53
54 55 55 55 55 55 53 53 52 52 52 51 50 50 50 49 48 48 47 47 47 47 47 46 46 46 46 45 45 45 45 44 43 42 42 42 41 40 39 38 37 36 36 36 36 36 36 36 36 36 35 35 35 35 34 40 46 51 51 50 49 48 48 48 48 49 49 50 50 51 51 51 51 51 51 50 50 51 51 51 51 51 51 51 51 51 51 51 51 51 51 51 51 51 51 51 51 51 51 51 51 52 52
53 54 54 54 55 55 54 53 52 52 51 50 50 50 49 49 48 47 47 47 46 46 46 46 45 45 45 44 44 45 45 43 42 40 40 40 40 39 38 37 36 36 36 36 36 36 36 35 35 35 35 34 34 34 34 37 44 51 51 50 49 48 48 47 48 48 48 49 49 50 50 50 51 51 51 50 50 51 51 51 51 52 52 52 52 51 51 51 51 51 51 51 51 51 51 51 51 51 51 51 51 51 52
53 53 54 55 55 55 53 52 52 51 51 50 49 49 49 49 48 47 45 45 44 44 44 45 44 44 44 43 43 44 46 44 41 39 38 38 38 38 38 37 36 35 35 36 36 36 35 35 35 34 34 33 33 33 33 34 43 52 52 51 49 48 47 47 47 47 48 48 48 49 49 50 50 50 50 50 50 50 50 51 51 52 52 52 52 52 51 51 51 51 51 51 51 51 51 51 51 51 51 51 51 51 51
52 52 53 54 55 54 52 52 51 51 50 49 49 48 48 48 47 46 44 42 42 42 42 42 43 43 43 42 42 43 44 42 40 38 38 38 37 37 38 37 35 35 35 35 35 35 35 34 34 34 34 33 33 33 33 34 42 51 54 52 50 49 48 47 47 47 47 47 47 47 47 48 49 50 50 50 50 50 50 50 51 51 51 51 51 51 51 51 51 51 51 51 51 52 52 52 52 52 52 52 52 52 52
51 51 52 53 53 52 51 51 51 51 50 49 48 48 48 47 46 44 42 41 40 40 40 41 42 42 42 42 42 42 42 41 39 38 38 37 36 36 37 36 34 34 35 35 35 34 34 34 34 34 33 33 32 32 32 34 39 47 53 53 52 50 49 48 47 47 47 47 47 47 47 47 48 49 50 50 50 49 49 49 49 50 50 50 50 51 51 51 51 51 51 52 52 52 52 52 52 52 52 52 52 52 52
50 51 51 51 51 51 50 50 50 50 50 49 48 47 47 46 44 42 41 39 39 38 39 40 41 41 42 41 41 41 41 39 38 38 37 36 36 35 35 34 34 33 34 34 34 34 34 34 34 34 33 33 32 32 32 33 36 41 48 52 53 52 50 48 47 47 47 47 47 47 46 46 47 48 49 49 49 49 48 48 48 48 49 49 49 50 50 50 51 51 51 51 51 51 52 51 52 52 52 52 51 51 51
50 51 51 50 50 50 49 49 49 49 49 48 47 46 45 44 43 42 40 39 38 38 38 38 40 41 41 40 40 39 40 39 39 38 36 35 35 35 35 34 33 33 34 34 34 34 34 35 34 34 33 32 31 32 32 34 36 38 40 47 52 54 52 51 49 48 47 47 46 46 45 45 45 47 48 49 49 48 48 47 47 47 48 48 48 49 49 50 51 51 51 51 51 51 51 51 51 51 51 51 51 51 51
50 50 50 49 49 48 48 48 48 48 47 46 45 44 44 43 42 41 39 38 37 37 38 39 40 41 41 39 39 39 40 39 38 37 35 34 34 34 34 33 33 33 33 33 33 34 35 35 35 34 32 31 31 32 33 34 36 38 38 44 49 53 54 53 51 49 47 47 46 45 44 44 44 45 47 47 48 47 47 47 47 47 47 47 48 49 49 50 50 51 51 51 51 51 51 51 51 51 51 51 51 51 51
49 49 49 49 48 48 48 47 47 47 46 44 43 42 42 42 41 40 38 37 37 37 38 39 41 42 40 38 38 38 39 39 38 36 34 33 33 33 33 32 32 33 33 33 33 34 35 35 34 33 32 31 31 32 33 35 36 37 38 39 43 48 50 50 50 49 47 47 46 45 44 43 43 44 46 47 47 47 47 46 46 46 46 47 47 48 49 49 50 50 51 51 51 51 51 51 51 51 51 51 51 51 51
49 49 49 49 48 48 47 47 46 45 44 42 42 41 41 41 40 39 38 37 37 37 38 38 41 42 40 38 38 38 39 38 35 34 33 33 33 32 31 31 32 33 33 33 34 35 35 35 34 33 31 31 31 33 33 35 35 35 35 36 38 41 42 41 44 47 48 47 46 45 44 43 43 43 45 46 46 46 46 45 45 45 45 46 47 48 48 49 49 50 50 50 50 50 50 51 51 51 51 50 50 50 50
49 49 49 48 47 47 46 46 45 43 42 40 39 39 39 39 40 40 39 38 38 38 38 38 38 40 39 38 38 39 40 37 34 33 33 32 32 31 30 32 32 33 32 33 34 35 35 35 33 32 31 30 31 33 33 35 35 33 33 33 34 36 38 37 39 43 47 47 47 46 46 45 44 43 44 44 45 45 45 44 44 44 44 45 46 47 48 48 49 49 49 49 50 50 50 50 50 50 50 50 50 50 50
49 48 48 47 46 46 45 45 43 42 40 39 38 38 38 39 39 40 40 40 40 39 38 38 38 38 38 38 38 39 40 37 35 33 33 32 31 30 30 32 32 32 32 33 35 35 35 34 33 32 30 30 32 33 34 35 34 32 31 30 31 33 36 35 37 39 41 43 46 47 49 47 45 44 43 44 44 44 43 43 43 43 43 44 45 46 47 48 48 48 49 49 49 49 50 50 50 50 50 50 50 49 49
48 47 47 46 45 45 44 43 42 41 39 38 38 38 38 38 39 39 40 41 41 40 38 38 38 38 38 39 39 38 38 37 35 33 33 32 31 30 30 31 32 31 31 34 34 34 34 33 32 31 30 31 32 33 33 33 33 32 30 29 29 30 33 36 37 37 37 38 39 43 50 48 46 44 43 43 43 42 42 42 42 42 42 43 44 45 47 47 47 47 48 48 48 48 49 49 50 50 50 50 49 49 49
48 47 46 45 44 44 43 42 41 40 39 38 38 38 38 38 38 39 39 40 41 41 39 39 38 38 38 40 39 38 38 37 35 33 33 32 31 30 30 30 30 30 30 33 33 32 31 31 31 31 31 32 32 33 33 33 32 31 30 29 29 30 34 40 41 40 36 37 37 39 46 49 47 44 43 42 42 42 42 42 42 42 42 42 43 44 45 46 47 47 47 47 47 48 48 49 50 50 50 50 49 49 49
47 46 45 44 43 43 42 42 41 40 38 38 38 38 38 38 39 39 38 39 41 42 42 40 39 38 39 39 39 39 38 37 36 34 33 32 31 30 30 30 29 29 29 31 30 29 28 29 30 32 33 33 33 32 32 32 32 31 30 30 29 30 34 39 41 39 37 38 38 38 41 48 48 45 43 42 42 42 42 42 41 41 41 42 42 43 44 45 46 46 46 46 47 47 48 49 49 50 50 49 49 49 48
46 45 44 43 42 42 42 41 41 40 39 38 38 38 39 39 40 40 39 39 40 41 42 41 39 38 39 40 39 39 38 37 35 34 33 32 31 30 30 29 29 28 28 28 27 26 27 28 31 35 38 35 32 30 30 31 32 31 31 30 30 30 30 33 35 36 37 38 38 38 38 42 45 46 44 43 43 42 42 42 41 41 41 41 42 42 43 44 44 45 45 46 46 47 47 48 49 49 49 49 49 48 48
46 44 43 42 42 42 42 42 41 39 39 38 38 38 39 40 40 41 40 40 40 39 40 40 40 40 39 40 40 39 38 36 34 33 33 32 31 30 29 29 29 29 28 27 26 26 26 29 34 38 38 33 31 29 28 31 31 31 31 30 29 29 28 31 33 36 37 37 37 38 38 38 39 41 43 43 43 44 44 43 42 41 41 41 41 42 42 42 43 43 44 45 45 46 47 47 48 48 48 48 48 48 48
45 44 42 42 42 42 42 42 41 40 39 38 38 38 39 40 41 41 41 40 39 38 38 39 39 39 39 40 40 39 38 35 34 33 33 33 32 31 30 31 30 29 28 27 26 26 29 33 36 35 33 32 29 27 26 30 31 30 29 29 29 28 28 29 32 33 35 36 36 37 37 36 35 35 35 38 38 39 41 43 43 42 41 40 41 41 41 41 42 42 42 43 44 45 46 46 47 47 47 48 48 48 48
44 43 42 42 42 42 42 42 42 41 39 39 38 38 39 40 40 40 40 40 39 39 38 38 39 39 39 39 39 39 38 36 35 35 35 33 32 32 33 33 32 30 28 27 26 28 32 35 34 32 30 29 27 25 24 29 30 28 26 27 28 28 27 27 28 30 32 34 35 36 36 34 33 32 32 33 33 34 36 41 42 42 42 41 41 41 41 41 41 41 42 42 43 44 45 45 46 46 47 47 47 47 47
44 42 42 42 42 42 42 42 42 41 40 39 38 38 39 39 39 38 38 38 38 39 39 39 39 39 40 41 40 38 37 36 35 35 33 32 31 32 36 33 31 29 28 27 26 29 36 33 30 28 26 25 24 22 22 25 26 25 25 28 29 28 25 25 26 27 29 31 33 33 34 33 32 32 32 33 33 33 33 37 40 43 42 42 41 41 41 40 40 40 41 42 42 43 43 44 44 45 46 46 47 47 47
44 42 42 42 42 42 42 42 42 42 40 39 38 38 39 39 38 38 37 37 38 40 42 42 40 38 37 37 37 37 36 36 35 33 31 30 29 30 32 30 29 27 27 26 27 30 39 31 26 24 21 21 21 21 22 24 24 25 26 29 28 26 24 25 26 26 27 29 30 31 32 32 32 31 31 33 33 33 33 33 36 40 42 42 42 42 42 42 41 41 41 41 41 42 42 42 43 43 44 45 46 47 47
44 43 42 42 42 42 42 42 43 42 41 40 39 38 39 39 39 39 39 38 39 39 41 43 42 38 33 34 35 36 36 35 34 33 32 29 28 28 29 28 26 26 26 26 28 31 36 29 24 21 20 20 21 22 23 24 24 24 27 28 26 24 24 24 25 26 27 28 29 30 30 30 31 31 31 32 33 33 33 32 33 34 39 42 43 43 43 42 42 42 42 41 41 41 42 42 42 43 43 44 45 46 47
43 42 42 42 41 41 41 42 43 42 41 40 39 39 39 40 41 42 41 39 38 38 38 39 39 38 33 33 34 36 37 35 33 33 32 30 28 26 26 26 25 25 25 25 27 29 29 25 22 20 19 20 22 23 23 24 24 24 26 26 25 24 24 24 25 26 27 27 27 28 29 29 30 31 31 32 32 32 32 32 32 33 35 37 39 41 42 42 43 43 42 41 40 40 40 41 42 42 42 43 45 46 47
43 42 42 41 41 41 41 42 42 42 42 42 42 41 42 42 42 42 40 39 38 38 37 37 38 38 36 33 33 35 37 35 33 31 30 31 30 28 25 25 24 23 23 24 26 28 27 22 20 20 20 21 22 23 23 24 24 24 25 25 24 24 24 24 25 27 27 26 25 26 27 28 29 29 31 31 31 31 31 31 31 32 33 33 34 35 37 39 42 44 42 41 39 38 39 40 40 41 42 43 44 45 46
42 42 42 41 41 40 41 42 42 43 44 43 41 40 41 41 41 40 39 39 38 37 36 36 36 36 36 35 35 34 33 35 34 32 29 30 30 29 27 26 22 19 20 20 22 24 24 21 20 21 21 22 22 23 23 23 24 24 25 25 25 24 24 25 26 27 26 24 24 25 26 26 27 28 29 29 29 30 30 31 31 31 32 32 33 36 38 41 43 44 42 40 39 38 38 38 39 40 41 42 43 44 45
42 42 42 41 41 40 41 42 42 43 44 42 40 40 41 41 41 40 40 39 38 38 37 36 35 34 33 33 32 32 33 36 35 34 33 30 29 27 25 23 20 19 21 17 15 15 17 16 18 20 21 23 24 23 23 23 23 24 26 26 25 24 24 25 26 26 24 23 23 24 25 25 26 27 28 28 28 29 29 30 30 31 31 31 33 33 34 37 40 42 43 41 39 38 38 38 38 39 40 41 42 43 44
42 42 42 41 41 40 41 41 42 43 43 41 40 40 41 41 40 40 40 40 39 38 39 38 36 33 31 29 28 29 30 35 36 35 33 31 28 25 22 24 24 23 23 17 12 9 9 11 15 18 21 24 24 23 22 22 22 23 26 28 27 25 24 25 25 24 22 22 23 24 25 25 26 26 27 26 26 27 28 29 29 30 31 31 31 31 30 34 38 42 43 42 42 41 39 38 38 38 39 41 42 42 43
42 42 42 41 41 41 41 41 42 42 42 40 40 40 40 40 40 40 40 40 39 38 38 38 35 32 29 27 27 28 29 33 35 35 34 32 29 26 24 27 29 26 19 16 13 11 8 13 17 21 23 24 23 21 20 21 22 24 29 30 27 24 25 24 24 22 21 22 24 24 24 25 25 25 25 24 25 25 26 27 28 29 29 30 31 33 35 39 40 39 40 40 41 41 42 39 38 39 39 40 41 42 43
42 42 41 41 41 41 41 41 42 42 42 41 40 40 40 40 40 40 40 39 38 38 38 38 35 33 30 27 27 28 30 30 32 34 34 34 33 32 29 26 22 17 14 15 14 14 14 20 21 20 20 23 23 21 19 21 22 24 29 27 25 24 25 24 23 21 21 22 23 24 24 25 25 24 23 23 24 24 24 25 26 27 28 28 29 31 32 33 33 34 35 36 38 40 42 41 40 39 39 40 41 42 42
42 42 41 41 41 41 41 42 42 42 42 41 40 40 40 40 40 40 39 38 38 38 37 37 35 34 32 29 28 29 29 29 32 35 37 35 36 35 30 27 24 21 17 15 15 17 20 24 20 15 14 20 24 24 23 24 24 24 25 24 24 24 25 23 21 21 21 21 22 22 23 25 24 22 22 22 23 24 24 24 25 25 26 27 28 28 28 29 31 32 33 35 36 38 42 42 41 40 39 40 41 42 42
42 42 41 41 41 41 41 41 42 42 42 42 42 41 40 40 40 40 39 39 38 37 36 36 36 35 33 32 31 29 29 28 29 30 33 33 33 33 32 30 28 26 25 24 23 23 25 23 19 16 16 18 21 24 25 24 24 22 22 23 24 24 24 21 20 20 20 21 21 22 22 23 22 22 22 22 23 23 23 23 24 24 25 26 26 27 27 29 32 34 35 38 38 39 42 41 40 39 39 40 41 42 42
42 41 41 41 41 41 41 41 42 42 42 43 42 41 40 40 40 40 39 38 38 37 36 36 36 36 37 34 32 30 28 27 28 28 28 28 29 30 31 31 32 33 32 29 29 29 28 23 21 21 22 16 15 17 21 22 22 22 22 23 24 24 22 20 19 19 20 20 21 21 21 21 22 23 23 22 22 22 23 23 24 24 25 25 25 26 28 31 33 34 36 37 38 39 42 41 40 40 39 40 41 42 42
42 42 41 41 41 42 42 42 42 42 42 44 43 41 40 40 39 39 38 38 39 39 38 37 37 37 38 34 31 29 28 28 29 29 28 26 26 28 32 30 30 32 34 31 30 29 28 25 24 24 22 17 15 14 15 19 21 23 23 23 23 22 21 20 20 20 20 21 21 21 21 21 22 23 22 22 22 22 24 24 24 25 25 25 25 25 27 29 29 30 33 35 37 39 42 42 41 41 40 41 42 42 42
42 42 41 41 41 42 42 42 42 42 42 44 43 41 40 39 39 38 38 38 39 40 38 37 37 37 37 34 31 29 29 29 29 29 29 25 25 28 34 31 30 30 31 29 28 27 26 25 25 25 23 22 20 17 15 15 17 19 20 20 21 22 22 21 22 22 22 22 22 22 22 21 21 21 21 22 22 23 24 25 25 25 25 24 24 25 26 26 27 28 29 32 36 39 42 42 42 41 41 41 41 42 42